This is the latest recevied weather packets stored in our database for station/object VE9LJW. If no packets are shown the sender has not sent any weather packets the latest 10 day(s).
| Time | Temp. | Humidity | Pressure | Rain* | Wind** | Luminosity | Snow |
|---|---|---|---|---|---|---|---|
| 1777980894 | 14.44° C | 81% | 1006 hPa | 0 mm | - | 166 W/m² | - |
| 1777980590 | 13.89° C | 82% | 1005.7 hPa | 0 mm | - | 113 W/m² | - |
| 1777980287 | 13.89° C | 83% | 1005.7 hPa | 0 mm | - | 95 W/m² | - |
| 1777979984 | 13.89° C | 83% | 1005.9 hPa | 0 mm | - | 125 W/m² | - |
| 1777979678 | 13.33° C | 84% | 1005.9 hPa | 0 mm | - | 120 W/m² | - |
| 1777979375 | 12.78° C | 85% | 1005.9 hPa | 0 mm | - | 119 W/m² | - |
| 1777979072 | 12.78° C | 85% | 1006 hPa | 0 mm | - | 124 W/m² | - |
| 1777978769 | 12.78° C | 85% | 1006 hPa | 0 mm | - | 130 W/m² | - |
| 1777978465 | 12.22° C | 86% | 1006 hPa | 0 mm | - | 119 W/m² | - |
| 1777978161 | 12.78° C | 86% | 1005.9 hPa | 0 mm | - | 92 W/m² | - |
| 1777977859 | 12.22° C | 87% | 1006 hPa | 0 mm | - | 87 W/m² | - |
| 1777977555 | 11.67° C | 88% | 1005.9 hPa | 0 mm | - | 76 W/m² | - |
| 1777977253 | 11.67° C | 88% | 1005.9 hPa | 0 mm | - | 69 W/m² | - |
| 1777976949 | 11.11° C | 91% | 1006.2 hPa | 0 mm | - | 62 W/m² | - |
| 1777976647 | 10.56° C | 92% | 1006 hPa | 0 mm | - | 35 W/m² | - |
| 1777976343 | 10.56° C | 92% | 1005.8 hPa | 0 mm | - | 29 W/m² | - |
| 1777976037 | 10.56° C | 92% | 1005.8 hPa | 0 mm | - | 27 W/m² | - |
| 1777975734 | 10.56° C | 92% | 1005.7 hPa | 0 mm | - | 42 W/m² | - |
| 1777975430 | 10.56° C | 92% | 1005.7 hPa | 0 mm | - | 34 W/m² | - |
| 1777975126 | 10.56° C | 93% | 1005.6 hPa | 0 mm | - | 34 W/m² | - |
| 1777974824 | 10° C | 94% | 1005.4 hPa | 0 mm | - | 37 W/m² | - |
| 1777974519 | 10° C | 95% | 1005.5 hPa | 0 mm | - | 22 W/m² | - |
| 1777974216 | 10° C | 95% | 1005.5 hPa | 0 mm | - | 15 W/m² | - |
| 1777973912 | 10° C | 95% | 1005.4 hPa | 0 mm | - | 10 W/m² | - |
| 1777973610 | 10° C | 95% | 1005.4 hPa | 0 mm | - | 6 W/m² | - |
* Rain latest hour (hover to see other rain measurements)
** Current wind speed in m/s (hover to see current wind gust speed)